Wacth_Time, WatchID,Watch_Activity_leve,Watch_SD, Watch_Thresh3SD, Watch_Motion_boolean,Watch_Running_Average, Watch_Worn_boolean, Watch_WearMinutes, Watch_WearHours
1970-01-01T00:03:39,Moto360_247G,1.4696,1.1083, 0.0780001,1,1.0,1,1,0.0167
1970-01-01T00:04:40,Moto360_247G,2.4718,1.1683, 0.0780001,1,1.0,1,2,0.0333
1970-01-01T00:05:40,Moto360_247G,2.3385,1.5554, 0.0780001,1,1.0,1,3,0.05
1970-01-01T00:06:40,Moto360_247G,1.1569,0.7771, 0.0780001,1,1.0,1,4,0.0667
1970-01-01T00:07:40,Moto360_247G,0.8997,0.4245, 0.0780001,1,1.0,1,5,0.0833
1970-01-01T00:09:02,Moto360_247G,0.6155,0.62, 0.0780001,1,1.0,1,6,0.1
1970-01-01T00:10:02,Moto360_247G,0.6118,0.2885, 0.0780001,1,1.0,1,7,0.1167
1970-01-01T00:11:02,Moto360_247G,0.3756,0.1488, 0.0780001,1,1.0,1,8,0.1333
1970-01-01T00:13:01,Moto360_247G,0.3066,0.1824, 0.0780001,1,1.0,1,9,0.15
1970-01-01T00:14:01,Moto360_247G,0.4026,0.2387, 0.0780001,1,1.0,1,10,0.1667
1970-01-01T00:15:01,Moto360_247G,0.3043,0.2512, 0.0780001,1,1.0,1,11,0.1833
1970-01-01T00:16:27,Moto360_247G,0.3214,0.1824, 0.0780001,1,1.0,1,12,0.2
1970-01-01T00:17:39,Moto360_247G,1.3464,0.4068, 0.0780001,1,1.0,1,13,0.2167
1970-01-01T00:18:39,Moto360_247G,1.9031,1.3285, 0.0780001,1,1.0,1,14,0.2333
1970-01-01T00:19:41,Moto360_247G,0.2637,0.5124, 0.0780001,1,1.0,1,15,0.25
1970-01-01T00:20:41,Moto360_247G,0.117,0.0067, 0.0780001,0,0.9,1,16,0.2667
1970-01-01T00:21:42,Moto360_247G,0.1118,0.006, 0.0780001,0,0.8,1,17,0.2833
1970-01-01T00:23:01,Moto360_247G,0.1097,0.006, 0.0780001,0,0.7,1,18,0.3
1970-01-01T00:24:38,Moto360_247G,0.1087,0.0062, 0.0780001,0,0.6,1,19,0.3167
1970-01-01T00:25:39,Moto360_247G,0.1059,0.0063, 0.0780001,0,0.5,1,20,0.3333
1970-01-01T00:26:40,Moto360_247G,0.1017,0.0061, 0.0780001,0,0.4,1,21,0.35
1970-01-01T00:27:42,Moto360_247G,0.0999,0.0066, 0.0780001,0,0.3,1,22,0.3667
1970-01-01T00:29:00,Moto360_247G,0.0943,0.0062, 0.0780001,0,0.2,1,23,0.3833
1970-01-01T00:30:01,Moto360_247G,0.0853,0.0111, 0.0780001,0,0.1,1,24,0.4
1970-01-01T00:31:01,Moto360_247G,0.097,0.0199, 0.0780001,0,0.0,0,24,0.4
1970-01-01T00:32:01,Moto360_247G,0.1103,0.006, 0.0780001,0,0.0,0,24,0.4
1970-01-01T00:33:01,Moto360_247G,0.1086,0.0061, 0.0780001,0,0.0,0,24,0.4
1970-01-01T00:34:03,Moto360_247G,0.1067,0.0062, 0.0780001,0,0.0,0,24,0.4
1970-01-01T00:35:03,Moto360_247G,0.1052,0.0058, 0.0780001,0,0.0,0,24,0.4
1970-01-01T00:36:03,Moto360_247G,0.1268,0.0121, 0.0780001,0,0.0,0,24,0.4
1970-01-01T00:37:03,Moto360_247G,0.1317,0.0065, 0.0780001,0,0.0,0,24,0.4
1970-01-01T00:38:03,Moto360_247G,0.1318,0.0062, 0.0780001,0,0.0,0,24,0.4
1970-01-01T00:39:03,Moto360_247G,0.1328,0.0063, 0.0780001,0,0.0,0,24,0.4
1970-01-01T00:40:03,Moto360_247G,0.1342,0.0064, 0.0780001,0,0.0,0,24,0.4
1970-01-01T00:41:03,Moto360_247G,0.126,0.0079, 0.0780001,0,0.0,0,24,0.4
1970-01-01T00:42:03,Moto360_247G,0.1245,0.0067, 0.0780001,0,0.0,0,24,0.4
1970-01-01T00:43:03,Moto360_247G,0.1241,0.006, 0.0780001,0,0.0,0,24,0.4
1970-01-01T00:44:40,Moto360_247G,0.1249,0.0064, 0.0780001,0,0.0,0,24,0.4
1970-01-01T00:45:40,Moto360_247G,0.126,0.0062, 0.0780001,0,0.0,0,24,0.4
1970-01-01T00:46:40,Moto360_247G,0.0891,0.0071, 0.0780001,0,0.0,0,24,0.4
1970-01-01T00:48:02,Moto360_247G,0.0863,0.0065, 0.0780001,0,0.0,0,24,0.4
1970-01-01T00:49:02,Moto360_247G,0.0912,0.007, 0.0780001,0,0.0,0,24,0.4
1970-01-01T00:50:02,Moto360_247G,0.0937,0.0065, 0.0780001,0,0.0,0,24,0.4
1970-01-01T00:51:02,Moto360_247G,0.1109,0.0157, 0.0780001,0,0.0,0,24,0.4
1970-01-01T00:52:02,Moto360_247G,0.1238,0.0071, 0.0780001,0,0.0,0,24,0.4
1970-01-01T00:53:02,Moto360_247G,0.1295,0.0067, 0.0780001,0,0.0,0,24,0.4
1970-01-01T00:54:02,Moto360_247G,0.1309,0.0069, 0.0780001,0,0.0,0,24,0.4
1970-01-01T00:55:02,Moto360_247G,0.1332,0.0066, 0.0780001,0,0.0,0,24,0.4
1970-01-01T00:56:17,Moto360_247G,0.1276,0.0088, 0.0780001,0,0.0,0,24,0.4
1970-01-01T00:57:39,Moto360_247G,0.1227,0.007, 0.0780001,0,0.0,0,24,0.4
1970-01-01T00:58:39,Moto360_247G,0.1229,0.0064, 0.0780001,0,0.0,0,24,0.4
1970-01-01T00:59:39,Moto360_247G,0.1199,0.0065, 0.0780001,0,0.0,0,24,0.4
1970-01-01T01:00:39,Moto360_247G,0.1192,0.0064, 0.0780001,0,0.0,0,24,0.4
1970-01-01T01:01:58,Moto360_247G,0.1184,0.0064, 0.0780001,0,0.0,0,24,0.4
1970-01-01T01:03:01,Moto360_247G,0.1185,0.0064, 0.0780001,0,0.0,0,24,0.4
1970-01-01T01:04:01,Moto360_247G,0.1177,0.0062, 0.0780001,0,0.0,0,24,0.4
1970-01-01T01:05:01,Moto360_247G,0.1188,0.0062, 0.0780001,0,0.0,0,24,0.4
1970-01-01T01:06:02,Moto360_247G,0.1243,0.0089, 0.0780001,0,0.0,0,24,0.4
1970-01-01T01:07:02,Moto360_247G,0.1319,0.0061, 0.0780001,0,0.0,0,24,0.4
1970-01-01T01:08:02,Moto360_247G,0.1299,0.0051, 0.0780001,0,0.0,0,24,0.4
1970-01-01T01:09:02,Moto360_247G,0.1281,0.0069, 0.0780001,0,0.0,0,24,0.4
1970-01-01T01:10:02,Moto360_247G,0.135,0.0066, 0.0780001,0,0.0,0,24,0.4
1970-01-01T01:11:02,Moto360_247G,0.1347,0.0066, 0.0780001,0,0.0,0,24,0.4
1970-01-01T01:12:29,Moto360_247G,0.1354,0.0065, 0.0780001,0,0.0,0,24,0.4
1970-01-01T01:13:29,Moto360_247G,0.1368,0.0069, 0.0780001,0,0.0,0,24,0.4
1970-01-01T01:14:35,Moto360_247G,0.1316,0.0065, 0.0780001,0,0.0,0,24,0.4
1970-01-01T01:15:39,Moto360_247G,0.1304,0.0075, 0.0780001,0,0.0,0,24,0.4
1970-01-01T01:17:01,Moto360_247G,0.1212,0.0065, 0.0780001,0,0.0,0,24,0.4
1970-01-01T01:18:01,Moto360_247G,0.1216,0.0062, 0.0780001,0,0.0,0,24,0.4
1970-01-01T01:19:02,Moto360_247G,0.1206,0.0064, 0.0780001,0,0.0,0,24,0.4
1970-01-01T01:20:39,Moto360_247G,0.1175,0.0068, 0.0780001,0,0.0,0,24,0.4
1970-01-01T01:22:01,Moto360_247G,0.065,0.0237, 0.0780001,0,0.0,0,24,0.4
1970-01-01T01:23:01,Moto360_247G,0.0556,0.0061, 0.0780001,0,0.0,0,24,0.4
1970-01-01T01:24:02,Moto360_247G,0.0545,0.0062, 0.0780001,0,0.0,0,24,0.4
1970-01-01T01:25:04,Moto360_247G,0.0521,0.0063, 0.0780001,0,0.0,0,24,0.4
1970-01-01T01:26:04,Moto360_247G,0.0514,0.0072, 0.0780001,0,0.0,0,24,0.4
1970-01-01T01:27:18,Moto360_247G,0.0456,0.0059, 0.0780001,0,0.0,0,24,0.4
1970-01-01T01:28:44,Moto360_247G,0.045,0.006, 0.0780001,0,0.0,0,24,0.4
1970-01-01T01:29:47,Moto360_247G,0.0473,0.0065, 0.0780001,0,0.0,0,24,0.4
1970-01-01T01:30:51,Moto360_247G,0.055,0.0267, 0.0780001,0,0.0,0,24,0.4
1970-01-01T01:32:01,Moto360_247G,0.1241,0.0064, 0.0780001,0,0.0,0,24,0.4
1970-01-01T01:33:01,Moto360_247G,0.1246,0.0059, 0.0780001,0,0.0,0,24,0.4
1970-01-01T01:34:01,Moto360_247G,0.1254,0.0059, 0.0780001,0,0.0,0,24,0.4
1970-01-01T01:35:01,Moto360_247G,0.1254,0.0058, 0.0780001,0,0.0,0,24,0.4
1970-01-01T01:36:01,Moto360_247G,0.1243,0.0063, 0.0780001,0,0.0,0,24,0.4
1970-01-01T01:37:02,Moto360_247G,0.1254,0.006, 0.0780001,0,0.0,0,24,0.4
1970-01-01T01:38:02,Moto360_247G,0.1241,0.0063, 0.0780001,0,0.0,0,24,0.4
1970-01-01T01:39:39,Moto360_247G,0.1249,0.0063, 0.0780001,0,0.0,0,24,0.4
1970-01-01T01:40:39,Moto360_247G,0.1276,0.0066, 0.0780001,0,0.0,0,24,0.4
1970-01-01T01:41:39,Moto360_247G,0.1259,0.0061, 0.0780001,0,0.0,0,24,0.4
1970-01-01T01:42:40,Moto360_247G,0.1244,0.0059, 0.0780001,0,0.0,0,24,0.4
1970-01-01T01:43:40,Moto360_247G,0.1238,0.0061, 0.0780001,0,0.0,0,24,0.4
1970-01-01T01:44:40,Moto360_247G,0.1262,0.0061, 0.0780001,0,0.0,0,24,0.4
1970-01-01T01:45:40,Moto360_247G,0.1264,0.0066, 0.0780001,0,0.0,0,24,0.4
1970-01-01T01:46:40,Moto360_247G,0.1215,0.0065, 0.0780001,0,0.0,0,24,0.4
1970-01-01T01:47:40,Moto360_247G,0.1198,0.0063, 0.0780001,0,0.0,0,24,0.4
1970-01-01T01:49:01,Moto360_247G,0.1212,0.0064, 0.0780001,0,0.0,0,24,0.4
1970-01-01T01:50:01,Moto360_247G,0.1188,0.0067, 0.0780001,0,0.0,0,24,0.4
1970-01-01T01:51:01,Moto360_247G,0.1191,0.0068, 0.0780001,0,0.0,0,24,0.4
1970-01-01T01:52:01,Moto360_247G,0.1223,0.006, 0.0780001,0,0.0,0,24,0.4
1970-01-01T01:53:01,Moto360_247G,0.1193,0.0066, 0.0780001,0,0.0,0,24,0.4
1970-01-01T01:54:01,Moto360_247G,0.1189,0.0064, 0.0780001,0,0.0,0,24,0.4
1970-01-01T01:55:19,Moto360_247G,0.1186,0.0065, 0.0780001,0,0.0,0,24,0.4
1970-01-01T01:56:19,Moto360_247G,0.0896,0.0147, 0.0780001,0,0.0,0,24,0.4
1970-01-01T01:57:27,Moto360_247G,0.0901,0.0069, 0.0780001,0,0.0,0,24,0.4
1970-01-01T01:58:39,Moto360_247G,0.0919,0.0068, 0.0780001,0,0.0,0,24,0.4
1970-01-01T01:59:39,Moto360_247G,0.0896,0.0065, 0.0780001,0,0.0,0,24,0.4
1970-01-01T02:00:40,Moto360_247G,0.0884,0.0064, 0.0780001,0,0.0,0,24,0.4
1970-01-01T02:01:40,Moto360_247G,0.0884,0.0075, 0.0780001,0,0.0,0,24,0.4
1970-01-01T02:03:01,Moto360_247G,0.087,0.0064, 0.0780001,0,0.0,0,24,0.4
1970-01-01T02:04:01,Moto360_247G,0.0929,0.0075, 0.0780001,0,0.0,0,24,0.4
1970-01-01T02:05:02,Moto360_247G,0.0963,0.0065, 0.0780001,0,0.0,0,24,0.4
1970-01-01T02:06:02,Moto360_247G,0.1001,0.0066, 0.0780001,0,0.0,0,24,0.4
1970-01-01T02:07:02,Moto360_247G,0.0877,0.0106, 0.0780001,0,0.0,0,24,0.4
1970-01-01T02:08:02,Moto360_247G,0.0814,0.0063, 0.0780001,0,0.0,0,24,0.4
1970-01-01T02:09:02,Moto360_247G,0.0799,0.006, 0.0780001,0,0.0,0,24,0.4
1970-01-01T02:10:04,Moto360_247G,0.0843,0.0065, 0.0780001,0,0.0,0,24,0.4
1970-01-01T02:11:40,Moto360_247G,0.1228,0.023, 0.0780001,0,0.0,0,24,0.4
1970-01-01T02:13:03,Moto360_247G,0.1364,0.0062, 0.0780001,0,0.0,0,24,0.4
1970-01-01T02:14:03,Moto360_247G,0.1351,0.0072, 0.0780001,0,0.0,0,24,0.4
1970-01-01T02:15:03,Moto360_247G,0.1346,0.0064, 0.0780001,0,0.0,0,24,0.4
1970-01-01T02:16:03,Moto360_247G,0.1358,0.0058, 0.0780001,0,0.0,0,24,0.4
1970-01-01T02:17:03,Moto360_247G,0.1404,0.0062, 0.0780001,0,0.0,0,24,0.4
1970-01-01T02:18:03,Moto360_247G,0.1423,0.007, 0.0780001,0,0.0,0,24,0.4
1970-01-01T02:19:03,Moto360_247G,0.1425,0.0072, 0.0780001,0,0.0,0,24,0.4
1970-01-01T02:20:39,Moto360_247G,0.1429,0.0062, 0.0780001,0,0.0,0,24,0.4
1970-01-01T02:21:39,Moto360_247G,0.1312,0.0139, 0.0780001,0,0.0,0,24,0.4
1970-01-01T02:22:39,Moto360_247G,0.106,0.0066, 0.0780001,0,0.0,0,24,0.4
1970-01-01T02:23:39,Moto360_247G,0.1093,0.0055, 0.0780001,0,0.0,0,24,0.4
1970-01-01T02:24:39,Moto360_247G,0.1048,0.0064, 0.0780001,0,0.0,0,24,0.4
1970-01-01T02:25:56,Moto360_247G,0.106,0.007, 0.0780001,0,0.0,0,24,0.4
1970-01-01T02:27:01,Moto360_247G,0.1069,0.0067, 0.0780001,0,0.0,0,24,0.4
1970-01-01T02:28:01,Moto360_247G,0.1033,0.007, 0.0780001,0,0.0,0,24,0.4
1970-01-01T02:29:23,Moto360_247G,0.1057,0.0064, 0.0780001,0,0.0,0,24,0.4
1970-01-01T02:30:39,Moto360_247G,0.1069,0.007, 0.0780001,0,0.0,0,24,0.4
1970-01-01T02:31:39,Moto360_247G,0.0946,0.0097, 0.0780001,0,0.0,0,24,0.4
1970-01-01T02:32:40,Moto360_247G,0.0855,0.0057, 0.0780001,0,0.0,0,24,0.4
1970-01-01T02:33:41,Moto360_247G,0.0843,0.0061, 0.0780001,0,0.0,0,24,0.4
1970-01-01T02:34:41,Moto360_247G,0.086,0.0063, 0.0780001,0,0.0,0,24,0.4
1970-01-01T02:36:01,Moto360_247G,0.0807,0.0077, 0.0780001,0,0.0,0,24,0.4
1970-01-01T02:37:01,Moto360_247G,0.0689,0.0077, 0.0780001,0,0.0,0,24,0.4
1970-01-01T02:38:01,Moto360_247G,0.0621,0.0061, 0.0780001,0,0.0,0,24,0.4
1970-01-01T02:39:01,Moto360_247G,0.0543,0.0066, 0.0780001,0,0.0,0,24,0.4
1970-01-01T02:40:03,Moto360_247G,0.0518,0.0065, 0.0780001,0,0.0,0,24,0.4
1970-01-01T02:41:06,Moto360_247G,0.0954,0.0416, 0.0780001,0,0.0,0,24,0.4
1970-01-01T02:42:07,Moto360_247G,0.1334,0.0062, 0.0780001,0,0.0,0,24,0.4
1970-01-01T02:43:39,Moto360_247G,0.1333,0.0065, 0.0780001,0,0.0,0,24,0.4
1970-01-01T02:45:01,Moto360_247G,0.1347,0.0067, 0.0780001,0,0.0,0,24,0.4
1970-01-01T02:46:01,Moto360_247G,0.1631,0.1514, 0.0780001,1,0.1,1,25,0.4167
1970-01-01T02:47:01,Moto360_247G,0.1382,0.0079, 0.0780001,0,0.1,1,26,0.4333
1970-01-01T02:48:01,Moto360_247G,0.1495,0.007, 0.0780001,0,0.1,1,27,0.45
1970-01-01T02:49:01,Moto360_247G,0.1465,0.0065, 0.0780001,0,0.1,1,28,0.4667
1970-01-01T02:50:01,Moto360_247G,0.1476,0.0066, 0.0780001,0,0.1,1,29,0.4833
1970-01-01T02:51:01,Moto360_247G,0.1488,0.0069, 0.0780001,0,0.1,1,30,0.5
1970-01-01T02:52:01,Moto360_247G,0.1523,0.0067, 0.0780001,0,0.1,1,31,0.5167
1970-01-01T02:53:16,Moto360_247G,0.1545,0.0068, 0.0780001,0,0.1,1,32,0.5333
1970-01-01T02:54:40,Moto360_247G,0.156,0.0067, 0.0780001,0,0.1,1,33,0.55
1970-01-01T02:55:40,Moto360_247G,0.1545,0.0096, 0.0780001,0,0.1,1,34,0.5667
1970-01-01T02:56:40,Moto360_247G,0.1349,0.0065, 0.0780001,0,0.0,0,34,0.5667
1970-01-01T02:57:40,Moto360_247G,0.1363,0.0066, 0.0780001,0,0.0,0,34,0.5667
1970-01-01T02:59:01,Moto360_247G,0.1348,0.0077, 0.0780001,0,0.0,0,34,0.5667
